{"data":{"norad_id":47161,"intl_designator":"2020-088AR","name":"STARLINK-1876","alt_names":[],"object_type":"PAYLOAD","status":"ACTIVE","operator":null,"country":"US","launch_date":"2020-11-25","launch_site_code":"AFETR","launch_vehicle":null,"mission":null,"orbit_class":"UNKNOWN","rcs_meters":null,"size_class":null,"mass_kg":null,"dimensions":null,"purposes":["comms"],"wikipedia_slug":null,"has_3d_model":false,"image_url":null,"decayed_at":null,"tle_current":{"epoch":"2026-07-06T19:16:22.973952Z","epoch_age_seconds":6562133,"freshness":"OLD","line1":"1 47161U 20088AR  26187.80304368  .12839268  12520-4  23908-3 0  9991","line2":"2 47161  53.0260  33.0968 0010951 261.7412  98.2395 16.46603021311106","mean_motion":16.46603021,"eccentricity":0.0010951,"inclination_deg":53.026,"raan_deg":33.0968,"arg_perigee_deg":261.7412,"mean_anomaly_deg":98.2395,"bstar":0.00023908,"rev_number":31110,"period_min":87.45277286844,"perigee_km":141.14918565038,"apogee_km":155.44337982623,"semimajor_km":6526.4332827383,"source":"CELESTRAK","updated_at":"2026-07-07T09:00:47.672702Z"}}}